ボアッティーニ彗星

C/2010 U3 ( Boattini )

English version
Home page
Updated on December 15, 2011

---------------------------------------------------------------------

・ プロフィール

発見日 2010年10月31日
発見光度 19.4等
発見者 A. Boattini (Mt. Lemmon)

・ 写真集

・ 軌道要素

Epoch 2019 Mar. 18.0 TT = JDT 2458560.5
T 2019 Mar. 1.12867 TT                                  MPC
q   8.4506854            (2000.0)            P               Q
z  +0.0003754      Peri.   88.09579     -0.36216559     -0.74299806
 +/-0.0000684      Node    43.06718     +0.07245106     -0.62444501
e   0.9968274      Incl.   55.51214     +0.92929378     -0.24087822
From 112 observations 2010 Oct. 31-2011 Nov. 20, mean residual 0".6.

・ 星図

・ 光度変化

        m1 = 0.5 + 5 logΔ + 10.0 log r

---------------------------------------------------------------------

軌道要素はM.P.E.C. 2011-W48に掲載されたものです。
星図はステラナビゲータ Ver.8 (アストロアーツ) で作成したものです。
光度グラフはComet for Windowsで作成したものです。

---------------------------------------------------------------------

Copyright(C) Seiichi Yoshida (comet@aerith.net). All rights reserved.